2023/02/18 00:00:00,15.7, 3.1
2023/02/18 00:10:00,15.7, 2.9
2023/02/18 00:20:00,15.6, 2.9
2023/02/18 00:30:00,15.7, 2.9
2023/02/18 00:40:00,15.7, 2.8
2023/02/18 00:50:00,15.6, 2.9
2023/02/18 01:00:00,15.6, 2.3
2023/02/18 01:10:00,15.6, 2.0
2023/02/18 01:20:00,15.5, 2.4
2023/02/18 01:30:00,15.5, 2.4
2023/02/18 01:40:00,15.5, 1.9
2023/02/18 01:50:00,15.5, 2.1
2023/02/18 02:00:00,15.5, 2.2
2023/02/18 02:10:00,15.5, 2.3
2023/02/18 02:20:00,15.5, 2.5
2023/02/18 02:30:00,15.5, 2.4
2023/02/18 02:40:00,15.4, 2.5
2023/02/18 02:50:00,15.4, 2.3
2023/02/18 03:00:00,15.3, 2.1
2023/02/18 03:10:00,15.4, 2.4
2023/02/18 03:20:00,15.3, 2.5
2023/02/18 03:30:00,15.3, 2.3
2023/02/18 03:40:00,15.1, 2.9
2023/02/18 03:50:00,14.9, 2.2
2023/02/18 04:00:00,14.9, 2.3
2023/02/18 04:10:00,14.7, 2.2
2023/02/18 04:20:00,14.6, 2.2
2023/02/18 04:30:00,14.6, 2.5
2023/02/18 04:40:00,14.5, 2.5
2023/02/18 04:50:00,14.5, 2.1
2023/02/18 05:00:00,14.5, 2.0
2023/02/18 05:10:00,14.5, 1.9
2023/02/18 05:20:00,14.5, 2.0
2023/02/18 05:30:00,14.6, 2.2
2023/02/18 05:40:00,14.5, 2.1
2023/02/18 05:50:00,14.5, 2.3
2023/02/18 06:00:00,14.5, 2.1
2023/02/18 06:10:00,14.5, 2.1
2023/02/18 06:20:00,14.4, 2.5
2023/02/18 06:30:00,14.4, 2.3
2023/02/18 06:40:00,14.4, 2.5
2023/02/18 06:50:00,14.4, 2.9
2023/02/18 07:00:00,14.3, 2.5
2023/02/18 07:10:00,14.3, 2.8
2023/02/18 07:20:00,14.3, 2.9
2023/02/18 07:30:00,14.2, 2.4
2023/02/18 07:40:00,14.2, 2.2
2023/02/18 07:50:00,14.1, 2.1
2023/02/18 08:00:00,14.0, 2.1
2023/02/18 08:10:00,13.9, 2.2
2023/02/18 08:20:00,13.8, 2.1
2023/02/18 08:30:00,13.8, 2.2
2023/02/18 08:40:00,13.8, 2.2
2023/02/18 08:50:00,13.5, 2.0
2023/02/18 09:00:00,13.3, 2.4
2023/02/18 09:10:00,13.2, 2.4
2023/02/18 09:20:00,13.1, 2.4
2023/02/18 09:30:00,13.1, 2.7
2023/02/18 09:40:00,13.2, 3.0
2023/02/18 09:50:00,13.2, 2.6
2023/02/18 10:00:00,13.2, 2.6
2023/02/18 10:10:00,13.2, 3.1
2023/02/18 10:20:00,13.1, 3.8
2023/02/18 10:30:00,13.1, 3.8
2023/02/18 10:40:00,13.1, 4.2
2023/02/18 10:50:00,13.1, 4.9
2023/02/18 11:00:00,13.1, 4.6
2023/02/18 11:10:00,13.1, 5.2
2023/02/18 11:20:00,13.1, 4.3
2023/02/18 11:30:00,12.9, 6.2
2023/02/18 11:40:00,12.8, 5.8
2023/02/18 11:50:00,12.7, 5.4
2023/02/18 12:00:00,12.5, 4.5
2023/02/18 12:10:00,12.3, 4.6
2023/02/18 12:20:00,12.2, 4.7
2023/02/18 12:30:00,12.2, 4.3
2023/02/18 12:40:00,12.2, 4.9
2023/02/18 12:50:00,12.1, 4.4
2023/02/18 13:00:00,12.0, 4.9
2023/02/18 13:10:00,11.8, 4.9
2023/02/18 13:20:00,11.7, 4.9
2023/02/18 13:30:00,11.4, 4.7
2023/02/18 13:40:00,11.4, 4.8
2023/02/18 13:50:00,11.4, 4.9
2023/02/18 14:00:00,11.2, 4.8
2023/02/18 14:10:00,11.3, 5.7
2023/02/18 14:20:00,11.0, 5.3
2023/02/18 14:30:00,11.0, 5.7
2023/02/18 14:40:00,10.9, 6.0
2023/02/18 14:50:00,11.1, 5.8
2023/02/18 15:00:00,10.2, 5.8
2023/02/18 15:10:00,10.0, 5.6
2023/02/18 15:20:00,10.1, 5.6
2023/02/18 15:30:00,10.1, 5.7
2023/02/18 15:40:00,10.0, 6.0
2023/02/18 15:50:00,10.0, 6.0
2023/02/18 16:00:00,10.1, 5.5
2023/02/18 16:10:00,10.1, 6.2
2023/02/18 16:20:00,10.1, 5.8
2023/02/18 16:30:00,10.1, 6.2
2023/02/18 16:40:00,10.1, 6.7
2023/02/18 16:50:00,10.1, 5.7
2023/02/18 17:00:00,10.1, 5.9
2023/02/18 17:10:00,10.0, 6.4
2023/02/18 17:20:00, 9.9, 6.0
2023/02/18 17:30:00, 9.8, 6.8
2023/02/18 17:40:00, 9.7, 6.2
2023/02/18 17:50:00, 9.8, 6.7
2023/02/18 18:00:00,10.0, 6.0
2023/02/18 18:10:00,10.0, 6.2
2023/02/18 18:20:00,10.1, 6.4
2023/02/18 18:30:00, 9.7, 5.7
2023/02/18 18:40:00, 9.5, 5.7
2023/02/18 18:50:00, 9.7, 6.5
2023/02/18 19:00:00, 9.6, 5.9
2023/02/18 19:10:00, 9.5, 6.2
2023/02/18 19:20:00, 9.3, 6.0
2023/02/18 19:30:00, 9.2, 6.5
2023/02/18 19:40:00, 9.2, 5.7
2023/02/18 19:50:00, 9.3, 5.5
2023/02/18 20:00:00, 9.4, 5.5
2023/02/18 20:10:00, 9.0, 5.5
2023/02/18 20:20:00, 8.9, 5.0
2023/02/18 20:30:00, 9.3, 4.9
2023/02/18 20:40:00, 9.2, 5.0
2023/02/18 20:50:00, 9.1, 5.9
2023/02/18 21:00:00, 9.1, 5.9
2023/02/18 21:10:00, 9.1, 6.2
2023/02/18 21:20:00, 8.9, 8.1
2023/02/18 21:30:00, 8.6, 8.3
2023/02/18 21:40:00, 8.8, 8.7
2023/02/18 21:50:00, 8.6, 9.1
2023/02/18 22:00:00, 8.4, 9.0
2023/02/18 22:10:00, 8.5, 9.3
2023/02/18 22:20:00, 8.2, 9.3
2023/02/18 22:30:00, 8.0,10.0
2023/02/18 22:40:00, 7.8, 9.8
2023/02/18 22:50:00, 7.6, 9.6
2023/02/18 23:00:00, 7.3, 9.9
2023/02/18 23:10:00, 6.9,10.2
2023/02/18 23:20:00, 6.9,10.3
2023/02/18 23:30:00, 7.0, 9.9
2023/02/18 23:40:00, 7.1, 9.3
2023/02/18 23:50:00, 7.1, 8.2
